TimeEST,TemperatureF,Dew PointF,Humidity,Sea Level PressureIn,VisibilityMPH,Wind Direction,Wind SpeedMPH,Gust SpeedMPH,PrecipitationIn,Events,Conditions,WindDirDegrees,DateUTC
12:53 AM,70.0,64.0,81,30.16,10.0,ENE,12.7,-,0.00,Rain,Light Rain,70,2013-02-10 05:53:00
1:16 AM,69.8,64.4,83,30.16,10.0,East,13.8,-,0.00,Rain,Light Rain,80,2013-02-10 06:16:00
1:29 AM,69.8,64.4,83,30.16,10.0,East,9.2,-,0.00,,Overcast,80,2013-02-10 06:29:00
1:53 AM,69.1,63.0,81,30.15,10.0,East,9.2,-,0.00,,Mostly Cloudy,80,2013-02-10 06:53:00
2:53 AM,69.1,62.1,78,30.15,10.0,East,9.2,-,N/A,,Mostly Cloudy,90,2013-02-10 07:53:00
3:53 AM,68.0,60.1,76,30.16,10.0,East,9.2,-,N/A,,Clear,90,2013-02-10 08:53:00
4:53 AM,66.0,59.0,78,30.15,10.0,East,9.2,-,N/A,,Clear,90,2013-02-10 09:53:00
5:53 AM,64.9,59.0,81,30.16,10.0,East,6.9,-,N/A,,Clear,90,2013-02-10 10:53:00
6:53 AM,64.0,57.9,80,30.19,10.0,East,5.8,-,N/A,,Clear,90,2013-02-10 11:53:00
7:53 AM,71.1,62.1,73,30.20,10.0,East,9.2,-,N/A,,Clear,100,2013-02-10 12:53:00
8:53 AM,75.0,60.1,60,30.22,10.0,ESE,16.1,23.0,N/A,,Clear,110,2013-02-10 13:53:00
9:53 AM,77.0,59.0,54,30.24,10.0,ESE,18.4,24.2,N/A,,Partly Cloudy,110,2013-02-10 14:53:00
10:53 AM,79.0,60.1,52,30.25,10.0,ESE,9.2,21.9,N/A,,Partly Cloudy,120,2013-02-10 15:53:00
11:53 AM,79.0,57.9,48,30.24,10.0,ESE,16.1,23.0,N/A,,Scattered Clouds,110,2013-02-10 16:53:00
12:53 PM,80.1,59.0,48,30.22,10.0,ESE,16.1,-,N/A,,Mostly Cloudy,120,2013-02-10 17:53:00
1:53 PM,78.1,63.0,60,30.20,10.0,ESE,16.1,25.3,0.00,,Mostly Cloudy,110,2013-02-10 18:53:00
2:53 PM,77.0,63.0,62,30.19,10.0,ESE,19.6,-,N/A,,Mostly Cloudy,110,2013-02-10 19:53:00
3:21 PM,77.0,62.6,61,30.17,10.0,ESE,15.0,25.3,N/A,,Mostly Cloudy,110,2013-02-10 20:21:00
3:53 PM,75.0,62.1,64,30.17,10.0,ESE,16.1,26.5,N/A,,Mostly Cloudy,110,2013-02-10 20:53:00
4:53 PM,75.0,62.1,64,30.17,10.0,ESE,19.6,-,N/A,,Mostly Cloudy,110,2013-02-10 21:53:00
5:53 PM,73.0,62.1,68,30.18,10.0,ESE,16.1,-,N/A,,Overcast,110,2013-02-10 22:53:00
6:53 PM,72.0,62.1,71,30.19,10.0,East,15.0,-,N/A,,Overcast,100,2013-02-10 23:53:00
7:53 PM,72.0,62.1,71,30.20,10.0,ESE,17.3,21.9,N/A,,Mostly Cloudy,110,2013-02-11 00:53:00
8:53 PM,72.0,62.1,71,30.22,10.0,ESE,11.5,-,N/A,,Mostly Cloudy,110,2013-02-11 01:53:00
9:53 PM,72.0,62.1,71,30.22,10.0,ESE,13.8,-,N/A,,Mostly Cloudy,120,2013-02-11 02:53:00
10:53 PM,72.0,62.1,71,30.21,10.0,ESE,12.7,-,N/A,,Mostly Cloudy,120,2013-02-11 03:53:00
11:53 PM,71.1,62.1,73,30.20,10.0,ESE,11.5,-,N/A,,Clear,120,2013-02-11 04:53:00